When you browse on this site, cookies collect data to enhance your experience and personalize the content and advertising you see.
Visit our Privacy Policy to learn more. By continuing to use the site, you agree to this use of cookies and data.
  • în România
  • Lista ţărilor
  • Pe 7 zile
  • Temperatura apei
  • Hartă satelitară
  • Meteo pe hartă
  • Widget-uri
  • user-avatar
    Intrare

    Meteo pe oră la Morobe

    Astăzi, 21 Iulie, Duminică

    Timp Temperatura Precipitaţii Vânt Presiune Umiditate
    00:00 +26°C° 0 mm 2 m/s 759 mmHg 90%
    01:00 +26°C° 0 mm 2 m/s 759 mmHg 90%
    02:00 +26°C° 0 mm 2 m/s 758 mmHg 91%
    03:00 +26°C° 0 mm 2 m/s 758 mmHg 92%
    04:00 +25°C° 0 mm 2 m/s 758 mmHg 92%
    05:00 +25°C° 0 mm 2 m/s 758 mmHg 92%
    06:00 +26°C° 0 mm 2 m/s 758 mmHg 91%
    07:00 +26°C° 0 mm 1 m/s 759 mmHg 90%
    08:00 +27°C° 0 mm 1 m/s 759 mmHg 84%
    09:00 +29°C° 0 mm 1 m/s 759 mmHg 77%
    10:00 +31°C° 0 mm 1 m/s 759 mmHg 71%
    11:00 +31°C° 0 mm 2 m/s 758 mmHg 70%
    12:00 +32°C° 0 mm 2 m/s 757 mmHg 70%
    13:00 +32°C° 0 mm 2 m/s 757 mmHg 69%
    14:00 +31°C° 0.1 mm 2 m/s 756 mmHg 72%
    15:00 +31°C° 0.1 mm 2 m/s 756 mmHg 75%
    16:00 +30°C° 0.1 mm 2 m/s 756 mmHg 78%
    17:00 +29°C° 0.2 mm 2 m/s 756 mmHg 83%
    18:00 +28°C° 0.2 mm 1 m/s 757 mmHg 88%
    19:00 +27°C° 0.2 mm 1 m/s 757 mmHg 93%
    20:00 +27°C° 0.2 mm 1 m/s 758 mmHg 93%
    21:00 +26°C° 0.2 mm 1 m/s 758 mmHg 94%
    22:00 +26°C° 0.2 mm 1 m/s 759 mmHg 94%
    23:00 +26°C° 0.1 mm 2 m/s 758 mmHg 94%

    Mâine, 22 Iulie, Luni

    Timp Temperatura Precipitaţii Vânt Presiune Umiditate
    00:00 +26°C° 0.1 mm 2 m/s 758 mmHg 93%
    01:00 +26°C° 0.1 mm 2 m/s 757 mmHg 93%
    02:00 +26°C° 0 mm 2 m/s 757 mmHg 93%
    03:00 +26°C° 0 mm 2 m/s 757 mmHg 92%
    04:00 +25°C° 0 mm 2 m/s 757 mmHg 92%
    05:00 +26°C° 0 mm 1 m/s 757 mmHg 91%
    06:00 +26°C° 0 mm 1 m/s 757 mmHg 90%
    07:00 +26°C° 0 mm 1 m/s 758 mmHg 89%
    08:00 +28°C° 0 mm 1 m/s 758 mmHg 81%
    09:00 +30°C° 0 mm 1 m/s 758 mmHg 73%
    10:00 +32°C° 0 mm 1 m/s 758 mmHg 65%
    11:00 +32°C° 0.3 mm 1 m/s 757 mmHg 66%
    12:00 +32°C° 0.3 mm 1 m/s 757 mmHg 68%
    13:00 +32°C° 0.3 mm 2 m/s 756 mmHg 70%
    14:00 +32°C° 0.7 mm 2 m/s 756 mmHg 72%
    15:00 +31°C° 0.7 mm 2 m/s 756 mmHg 75%
    16:00 +30°C° 0.7 mm 2 m/s 755 mmHg 78%
    17:00 +29°C° 0.7 mm 2 m/s 756 mmHg 83%
    18:00 +28°C° 0.7 mm 1 m/s 756 mmHg 88%
    19:00 +27°C° 0.7 mm 1 m/s 757 mmHg 92%
    20:00 +27°C° 1.2 mm 1 m/s 757 mmHg 92%
    21:00 +27°C° 1.2 mm 2 m/s 758 mmHg 92%
    22:00 +27°C° 1.2 mm 2 m/s 758 mmHg 92%
    23:00 +26°C° 4.6 mm 2 m/s 758 mmHg 93%

    Poimâine, 23 Iulie, Marţi

    Timp Temperatura Precipitaţii Vânt Presiune Umiditate
    00:00 +26°C° 4.6 mm 2 m/s 757 mmHg 94%
    01:00 +26°C° 4.6 mm 2 m/s 757 mmHg 95%
    02:00 +26°C° 19.6 mm 2 m/s 757 mmHg 96%
    03:00 +26°C° 19.6 mm 3 m/s 757 mmHg 97%
    04:00 +26°C° 19.6 mm 3 m/s 757 mmHg 99%
    05:00 +26°C° 18.4 mm 3 m/s 757 mmHg 99%
    06:00 +26°C° 18.4 mm 3 m/s 758 mmHg 99%
    07:00 +26°C° 18.4 mm 3 m/s 758 mmHg 99%
    08:00 +26°C° 6.2 mm 3 m/s 759 mmHg 97%
    09:00 +26°C° 6.2 mm 2 m/s 759 mmHg 96%
    10:00 +27°C° 6.2 mm 2 m/s 759 mmHg 95%
    11:00 +27°C° 0.4 mm 2 m/s 759 mmHg 93%
    12:00 +27°C° 0.4 mm 2 m/s 758 mmHg 92%
    13:00 +28°C° 0.4 mm 2 m/s 757 mmHg 91%
    14:00 +28°C° 0 mm 2 m/s 757 mmHg 87%
    15:00 +29°C° 0 mm 2 m/s 756 mmHg 83%
    16:00 +30°C° 0 mm 2 m/s 756 mmHg 79%
    17:00 +29°C° 0.2 mm 1 m/s 757 mmHg 84%
    18:00 +27°C° 0.2 mm 1 m/s 757 mmHg 90%
    19:00 +24°C° 0.2 mm 0 m/s 758 mmHg 95%
    20:00 +24°C° 0.3 mm 0 m/s 758 mmHg 95%
    21:00 +26°C° 0.3 mm 1 m/s 759 mmHg 95%
    22:00 +26°C° 0.3 mm 1 m/s 759 mmHg 95%
    23:00 +26°C° 1.2 mm 2 m/s 759 mmHg 95%

    24 Iulie, Miercuri

    Timp Temperatura Precipitaţii Vânt Presiune Umiditate
    00:00 +26°C° 1.2 mm 2 m/s 759 mmHg 94%
    01:00 +26°C° 1.2 mm 2 m/s 759 mmHg 94%
    02:00 +26°C° 0.9 mm 2 m/s 758 mmHg 94%
    03:00 +26°C° 0.9 mm 2 m/s 758 mmHg 93%
    04:00 +26°C° 0.9 mm 2 m/s 758 mmHg 93%
    05:00 +26°C° 0.5 mm 2 m/s 758 mmHg 92%
    06:00 +26°C° 0.5 mm 2 m/s 759 mmHg 92%
    07:00 +26°C° 0.5 mm 2 m/s 759 mmHg 91%
    08:00 +27°C° 0.5 mm 2 m/s 760 mmHg 88%
    09:00 +28°C° 0.5 mm 2 m/s 760 mmHg 85%
    10:00 +29°C° 0.5 mm 2 m/s 760 mmHg 83%
    11:00 +29°C° 0.7 mm 2 m/s 759 mmHg 84%
    12:00 +29°C° 0.7 mm 2 m/s 759 mmHg 86%
    13:00 +29°C° 0.7 mm 3 m/s 758 mmHg 88%
    14:00 +29°C° 0.4 mm 2 m/s 758 mmHg 87%
    15:00 +29°C° 0.4 mm 2 m/s 757 mmHg 87%
    16:00 +29°C° 0.4 mm 2 m/s 757 mmHg 86%
    17:00 +28°C° 0.1 mm 2 m/s 758 mmHg 89%
    18:00 +27°C° 0.1 mm 2 m/s 758 mmHg 91%
    19:00 +26°C° 0.1 mm 2 m/s 758 mmHg 94%
    20:00 +26°C° 0.1 mm 2 m/s 759 mmHg 93%
    21:00 +26°C° 0.1 mm 2 m/s 759 mmHg 93%
    22:00 +26°C° 0.1 mm 2 m/s 760 mmHg 93%
    23:00 +26°C° 0.1 mm 2 m/s 760 mmHg 93%

    25 Iulie, Joi

    Timp Temperatura Precipitaţii Vânt Presiune Umiditate
    00:00 +26°C° 0.1 mm 2 m/s 759 mmHg 94%
    01:00 +25°C° 0.1 mm 2 m/s 759 mmHg 94%
    02:00 +25°C° 0.1 mm 2 m/s 759 mmHg 94%
    03:00 +25°C° 0.1 mm 2 m/s 758 mmHg 94%
    04:00 +25°C° 0.1 mm 2 m/s 758 mmHg 93%
    05:00 +25°C° 0.2 mm 2 m/s 758 mmHg 93%
    06:00 +26°C° 0.2 mm 2 m/s 759 mmHg 93%
    07:00 +26°C° 0.2 mm 2 m/s 759 mmHg 92%
    08:00 +27°C° 0.2 mm 2 m/s 759 mmHg 88%
    09:00 +28°C° 0.2 mm 2 m/s 759 mmHg 83%
    10:00 +30°C° 0.2 mm 2 m/s 759 mmHg 78%
    11:00 +30°C° 0.3 mm 3 m/s 759 mmHg 79%
    12:00 +30°C° 0.3 mm 3 m/s 758 mmHg 80%
    13:00 +30°C° 0.3 mm 4 m/s 758 mmHg 80%
    14:00 +29°C° 0.4 mm 4 m/s 758 mmHg 83%
    15:00 +29°C° 0.4 mm 4 m/s 757 mmHg 85%
    16:00 +28°C° 0.4 mm 4 m/s 757 mmHg 87%
    17:00 +28°C° 0.5 mm 3 m/s 757 mmHg 90%
    18:00 +27°C° 0.5 mm 3 m/s 758 mmHg 93%
    19:00 +26°C° 0.5 mm 2 m/s 759 mmHg 95%
    20:00 +26°C° 0.1 mm 2 m/s 759 mmHg 95%
    21:00 +26°C° 0.1 mm 2 m/s 759 mmHg 95%
    22:00 +26°C° 0.1 mm 2 m/s 760 mmHg 95%
    23:00 +26°C° 0.1 mm 2 m/s 759 mmHg 95%

    26 Iulie, Vineri

    Timp Temperatura Precipitaţii Vânt Presiune Umiditate
    00:00 +25°C° 0.1 mm 2 m/s 759 mmHg 95%
    01:00 +25°C° 0.1 mm 2 m/s 759 mmHg 95%
    02:00 +25°C° 0.1 mm 2 m/s 758 mmHg 95%
    03:00 +25°C° 0.1 mm 2 m/s 758 mmHg 95%
    04:00 +25°C° 0.1 mm 2 m/s 758 mmHg 95%
    05:00 +25°C° 0.1 mm 2 m/s 758 mmHg 94%
    06:00 +25°C° 0.1 mm 2 m/s 758 mmHg 94%
    07:00 +25°C° 0.1 mm 2 m/s 759 mmHg 93%
    08:00 +27°C° 0 mm 2 m/s 759 mmHg 87%
    09:00 +28°C° 0 mm 2 m/s 759 mmHg 81%
    10:00 +30°C° 0 mm 3 m/s 759 mmHg 76%
    11:00 +30°C° 0.1 mm 3 m/s 758 mmHg 76%
    12:00 +30°C° 0.1 mm 3 m/s 758 mmHg 77%
    13:00 +30°C° 0.1 mm 3 m/s 757 mmHg 78%
    14:00 +29°C° 0.2 mm 3 m/s 757 mmHg 81%
    15:00 +28°C° 0.2 mm 3 m/s 757 mmHg 84%
    16:00 +28°C° 0.2 mm 3 m/s 756 mmHg 88%
    17:00 +27°C° 0.2 mm 3 m/s 757 mmHg 89%
    18:00 +27°C° 0.2 mm 3 m/s 757 mmHg 91%
    19:00 +26°C° 0.2 mm 3 m/s 758 mmHg 93%
    20:00 +26°C° 0.1 mm 2 m/s 758 mmHg 93%
    21:00 +26°C° 0.1 mm 2 m/s 759 mmHg 94%
    22:00 +26°C° 0.1 mm 2 m/s 759 mmHg 94%
    23:00 +26°C° 0.1 mm 2 m/s 759 mmHg 94%
    Arată mai mult